Weather in Kazinka

Russia / Lipetsk Oblast     52°32′18″N   39°49′26″E
temp.,
°C
wind,
m/s
gust,
m/s
humid.,
%
clouds,
%
prec.,
mm/h
press.,
hPa
HPBL,
m
21 april, wed
wed2100:00+5ne3796100 4.4 1004411
03:00+5ese1397100 6.7 1003169
06:00+6wnw3498100 4.6 1003228
09:00+5wnw3493100 5.3 1006295
12:00+4w4692100 0.3 1009459
15:00+7wsw5877100 0.3 1011925
18:00+7ssw3781100 0.0 1013521
21:00+7s3688100 0.0 1015159
22 april, thu
thu2200:00+5ssw389515 0.4 1016215
03:00+4sw389645 0.4 1017209
06:00+3ssw249714 0.0 1019107
09:00+9ssw35711 0.0 1020558
12:00+13sw465598 0.0 10201485
15:00+15sw464772 0.0 10201906
18:00+14sw355641 0.0 1020198
21:00+10s336489 0.0 102040
23 april, fri
fri2300:00+10s3668100 0.0 1020125
03:00+9s3769100 0.0 1020144
06:00+9s3674100 0.0 1020147
09:00+13s476289 0.0 1020435
12:00+17s564178 0.0 10182502
15:00+15sse365782 0.0 1017330
18:00+15sse46565 0.0 1016507
21:00+10sse387486 0.1 1016159
24 april, sat
sat2400:00+11sse41172100 0.0 1014296
03:00+9sse4127682 0.0 1012315
06:00+8sse4988100 0.9 1010296
09:00+11s5973100 1.2 1008679
12:00+5wsw61291100 2.7 1010730
15:00+7w6870100 3.1 10101229
18:00+6w5679100 0.5 1011925
21:00+4wsw3790100 2.5 1013338
25 april, sun
sun2500:00+4sw389184 0.0 1012278
03:00+2sw38915 0.0 1013172
06:00+2sw39881 0.0 1013284
09:00+6wsw69615 0.0 10141131
12:00+9wsw6846100 0.0 10142271
15:00+10wsw574391 0.0 10132201
18:00+8w475791 0.3 10131102
21:00+5sw3878100 0.6 1014234